TimeEDT,TemperatureF,Dew PointF,Humidity,Sea Level PressureIn,VisibilityMPH,Wind Direction,Wind SpeedMPH,Gust SpeedMPH,PrecipitationIn,Events,Conditions,WindDirDegrees,DateUTC
12:56 AM,73.0,68.0,84,29.96,10.0,SW,5.8,-,N/A,,Mostly Cloudy,220,2013-06-18 04:56:00
1:56 AM,72.0,68.0,87,29.95,10.0,SSW,6.9,-,N/A,,Scattered Clouds,200,2013-06-18 05:56:00
2:56 AM,72.0,69.1,91,29.92,10.0,South,5.8,-,N/A,,Mostly Cloudy,190,2013-06-18 06:56:00
3:56 AM,72.0,69.1,91,29.91,10.0,SSW,8.1,-,N/A,,Overcast,200,2013-06-18 07:56:00
4:56 AM,73.0,69.1,87,29.91,10.0,SSW,9.2,-,N/A,,Overcast,200,2013-06-18 08:56:00
5:56 AM,73.0,69.1,87,29.91,10.0,SSW,9.2,-,N/A,,Mostly Cloudy,210,2013-06-18 09:56:00
6:56 AM,73.0,69.1,87,29.92,10.0,SW,9.2,-,N/A,,Mostly Cloudy,220,2013-06-18 10:56:00
7:14 AM,73.4,69.8,88,29.91,10.0,SSW,6.9,-,N/A,,Mostly Cloudy,210,2013-06-18 11:14:00
7:56 AM,73.0,70.0,90,29.93,10.0,SW,11.5,-,N/A,,Overcast,230,2013-06-18 11:56:00
8:07 AM,73.4,69.8,88,29.92,10.0,WSW,8.1,-,N/A,,Overcast,240,2013-06-18 12:07:00
8:56 AM,73.9,70.0,87,29.92,10.0,SSW,8.1,-,N/A,,Overcast,210,2013-06-18 12:56:00
9:56 AM,77.0,71.1,82,29.91,10.0,SW,9.2,-,N/A,,Overcast,220,2013-06-18 13:56:00
10:56 AM,79.0,71.1,77,29.90,10.0,SSW,8.1,-,N/A,,Overcast,200,2013-06-18 14:56:00
11:56 AM,80.1,71.1,74,29.88,10.0,SW,11.5,-,N/A,,Overcast,230,2013-06-18 15:56:00
12:56 PM,80.1,71.1,74,29.87,10.0,SW,12.7,-,N/A,,Overcast,220,2013-06-18 16:56:00
1:27 PM,80.6,71.6,74,29.85,10.0,SW,11.5,-,0.00,Rain,Light Rain,220,2013-06-18 17:27:00
1:41 PM,80.6,71.6,74,29.85,10.0,SW,11.5,-,0.00,Rain,Light Rain,230,2013-06-18 17:41:00
1:56 PM,80.1,71.1,74,29.85,10.0,SW,12.7,-,0.00,Rain,Light Rain,230,2013-06-18 17:56:00
2:19 PM,80.6,71.6,74,29.83,10.0,SW,11.5,-,0.00,,Overcast,220,2013-06-18 18:19:00
2:56 PM,82.0,71.1,69,29.83,10.0,SW,11.5,-,0.00,,Overcast,230,2013-06-18 18:56:00
3:56 PM,82.0,72.0,71,29.80,10.0,SW,6.9,-,N/A,,Overcast,220,2013-06-18 19:56:00
4:56 PM,82.9,72.0,69,29.79,10.0,SW,11.5,-,N/A,,Overcast,220,2013-06-18 20:56:00
5:56 PM,84.0,72.0,67,29.77,10.0,SW,12.7,-,N/A,,Mostly Cloudy,230,2013-06-18 21:56:00
6:56 PM,80.1,70.0,71,29.76,10.0,SSW,12.7,20.7,N/A,,Mostly Cloudy,200,2013-06-18 22:56:00
7:56 PM,77.0,70.0,79,29.77,10.0,NNW,5.8,-,N/A,,Overcast,340,2013-06-18 23:56:00
8:05 PM,75.2,71.6,89,29.77,10.0,WNW,19.6,24.2,0.00,Rain,Light Rain,300,2013-06-19 00:05:00
8:08 PM,75.2,69.8,83,29.78,0.5,West,19.6,24.2,0.13,Fog-Rain,Heavy Rain,270,2013-06-19 00:08:00
8:15 PM,71.6,69.8,94,29.77,0.2,NW,15.0,25.3,0.57,Fog-Rain-Thunderstorm,Heavy Thunderstorms and Rain,310,2013-06-19 00:15:00
8:34 PM,73.4,69.8,88,29.79,3.0,WSW,10.4,-,0.74,Rain-Thunderstorm,Light Thunderstorms and Rain,250,2013-06-19 00:34:00
8:47 PM,71.6,69.8,94,29.79,10.0,NNW,11.5,25.3,0.74,,Overcast,330,2013-06-19 00:47:00
8:56 PM,72.0,70.0,93,29.80,10.0,NNW,10.4,-,0.75,,Overcast,340,2013-06-19 00:56:00
9:09 PM,71.6,69.8,94,29.79,10.0,North,9.2,-,0.00,Rain,Light Rain,360,2013-06-19 01:09:00
9:28 PM,71.6,69.8,94,29.80,3.0,North,3.5,-,0.06,Rain,Rain,350,2013-06-19 01:28:00
9:56 PM,71.1,70.0,96,29.79,10.0,NNE,8.1,-,0.09,Rain,Light Rain,20,2013-06-19 01:56:00
10:56 PM,71.1,69.1,93,29.79,10.0,NE,6.9,-,0.02,,Overcast,50,2013-06-19 02:56:00
11:32 PM,69.8,68.0,94,29.79,10.0,NE,6.9,-,N/A,,Overcast,40,2013-06-19 03:32:00
11:56 PM,70.0,68.0,93,29.80,10.0,NNE,9.2,-,N/A,,Overcast,20,2013-06-19 03:56:00